Location: Brivio
(45.7333°N, 9.4500°E)
Time: 13:30:17
(UTC+00:00)

Gbstr 26 Del rocket - Pass Details

Date: 18 October 2019
Orbit: 493 x 1264 km, 51.8° (Epoch: 21 November)

Event Time Altitude Azimuth Distance (km) Brightness Sun altitude
Rises 18:49:09 0° 298° (WNW) 3,461 8.1 -24.6°
Reaches altitude 10° 18:51:29 10° 297° (WNW) 2,629 7.2 -25.0°
Maximum altitude 18:57:51 75° 214° (SSW) 1,101 4.2 -26.1°
Enters shadow 18:59:48 51° 143° (SE) 1,360 4.4 -26.4°
